Погода в Преко

Хорватия     44°04′52″N   15°10′57″E
В апреле 2022 года жителям России запретили посещать сайт meteo.paraplan.net по решению Генеральной прокуратуры. Аудитория сайта уменьшилась в 10 раз. Владельцы сайта не видят смысла в поддержке погодного сервера в таких условиях. Сайт будет закрыт в октябре.
темп.,
°C
ветер,
м/с
пор.,
м/с
влажн.,
%
обл.,
%
осадки,
мм/ч
давл.,
гПа
погр.,
м
30 сентября, пт
пт3023:00+20з7867100 1.9 1004402
02:00+17ссв6687100 3.1 1005354
05:00+17с228195 1.5 1005137
08:00+18всв3373100 2.0 1008121
11:00+21в4465100 0.0 1010292
14:00+21юв3473100 1.1 1012323
17:00+22юв111475100 0.1 1011656
20:00+21юв121775100 0.8 1012669
1 октября, сб
сб123:00+22ююв11157944 1.4 1012348
02:00+22ююв9118098 3.6 1013331
05:00+21ююв6887100 2.1 1014356
08:00+21ююв458416 4.1 1016372
11:00+21юв117767 2.4 1016270
14:00+21ссз757690 3.6 1016570
17:00+20ссз457326 0.1 1016350
20:00+19ссз45745 0.1 1016335
2 октября, вс
вс223:00+19сз46745 0.0 1017469
02:00+19сз45742 0.2 1018631
05:00+19сз35737 0.1 1018736
08:00+19ссз56710 0.1 1019752
11:00+20сз56670 0.0 1021683
14:00+20сз66682 0.0 1020640
17:00+20сз67695 0.0 1020532
20:00+19ссз67695 0.0 1020338
3 октября, пн
пн323:00+20сз44715 0.0 1020303
02:00+19сз44745 0.0 1019384
05:00+19ссз337516 0.0 1018376
08:00+18ссв12725 0.0 1018206
11:00+19ссв11635 0.0 1019292
14:00+20зсз22613 0.0 1018424
17:00+20сз44670 0.0 1017303
20:00+20ссз55695 0.0 1018272
4 октября, вт
вт423:00+20ссв34676 0.0 1018151
02:00+18св46635 0.0 1018182
05:00+18св35630 0.0 1018156
08:00+18ссв34615 0.0 1018141
11:00+20с12525 0.0 1019278
14:00+21зсз33525 0.0 1019476
17:00+21сз446097 0.0 1019283
20:00+20сз4469100 0.0 1019266